Location: Unspecified
(0.0000°N, 0.0000°E)
Time: 03:49:10
(UTC+00:00)

ISS - Pass Details

Date: 05 February 2026
Orbit: 413 x 428 km, 51.6° (Epoch: 18 February)

Event Time Altitude Azimuth Distance (km) Brightness Sun altitude
Rises 05:44:44 0° 194° (SSW) 2,364 0.1 -7.0°
Reaches altitude 10° 05:47:10 10° 178° (S) 1,494 -0.7 -6.4°
Maximum altitude 05:49:48 21° 126° (SE) 987 -0.8 -5.8°
Drops below altitude 10° 05:52:25 10° 74° (ENE) 1,482 0.1 -5.2°
Sets 05:54:49 0° 58° (ENE) 2,338 0.7 -4.6°
